EW4214 Weather Reports


Display with metric or nautical units.
time (UTC)temp
F
wind
direction
speed
MPH
gust
MPH
rain 1hr
in
rain 24hr
in
rain mn
in
humidity
%
barometer
mb
20260506190706 78 172 0.0 2.0 0.00 0.00 0.00 56 1007.3
20260506185706 62 173 0.0 0.0 0.00 0.00 0.00 100 1007.4
20260506185231 78 169 0.0 0.0 0.00 0.00 0.00 56 1007.4
20260506183655 62 175 0.0 1.0 0.00 0.00 0.00 100 1007.6
20260506182655 73 172 0.0 1.0 0.00 0.00 0.00 69 1007.6
20260506181649 63 171 0.0 1.0 0.00 0.00 0.00 100 1007.7
20260506180646 74 172 0.0 0.0 0.00 0.00 0.00 68 1007.6
20260506175650 63 172 0.0 0.0 0.00 0.00 0.00 100 1007.8
20260506175424 63 170 0.0 2.0 0.00 0.00 0.00 100 1008.0
20260506175417 74 173 0.0 1.0 0.00 0.00 0.00 67 1007.8
20260506173151 74 174 0.0 0.0 0.00 0.00 0.00 66 1008.0
20260506171628 64 173 0.0 0.0 0.00 0.00 0.00 100 1008.1
20260506170625 79 172 0.0 1.0 0.00 0.00 0.00 52 1008.3
20260506165622 64 173 0.0 1.0 0.00 0.00 0.00 100 1008.2
20260506165129 79 179 0.0 1.0 0.00 0.00 0.00 52 1008.2
20260506163626 64 184 0.0 0.0 0.00 0.00 0.00 100 1008.3
20260506162615 79 184 0.0 1.0 0.00 0.00 0.00 52 1008.3
20260506161611 63 175 0.0 1.0 0.00 0.00 0.00 100 1008.3
20260506160604 79 174 0.0 2.0 0.00 0.00 0.00 52 1008.4
20260506155605 79 173 0.0 3.0 0.00 0.00 0.00 52 1008.4
20260506154601 63 168 0.0 1.0 0.00 0.00 0.00 100 1008.4
20260506153556 79 187 0.0 0.0 0.00 0.00 0.00 52 1008.4
20260506152555 64 182 0.0 1.0 0.00 0.00 0.00 100 1008.2
20260506151550 79 174 0.0 2.0 0.00 0.00 0.00 52 1008.2
20260506150541 63 167 1.0 3.0 0.00 0.00 0.00 100 1008.5
20260506145544 74 174 0.0 1.0 0.00 0.00 0.00 65 1008.4
20260506144534 63 175 0.0 2.0 0.00 0.00 0.00 100 1008.2
20260506143532 74 181 0.0 2.0 0.00 0.00 0.00 65 1008.1
20260506142531 63 184 0.0 2.0 0.00 0.00 0.00 100 1008.0
20260506141530 74 168 1.0 3.0 0.00 0.00 0.00 65 1007.7
20260506140531 64 205 1.0 2.0 0.00 0.00 0.00 100 1007.9
20260506140024 75 174 0.0 1.0 0.00 0.00 0.00 65 1007.8
20260506134532 64 176 0.0 2.0 0.00 0.00 0.00 100 1007.8
20260506134011 74 199 1.0 4.0 0.00 0.00 0.00 66 1007.6
20260506133023 64 106 2.0 4.0 0.00 0.00 0.00 100 1007.6
20260506131531 74 172 1.0 1.0 0.00 0.00 0.00 65 1007.4
20260506130533 64 190 0.0 2.0 0.00 0.00 0.00 100 1007.2
20260506130021 75 205 1.0 4.0 0.00 0.00 0.00 64 1007.1
20260506125017 75 187 1.0 6.0 0.00 0.00 0.00 61 1006.9
20260506123531 75 120 1.0 11.0 0.00 0.00 0.00 63 1007.3
20260506123026 76 128 6.0 11.0 0.00 0.00 0.00 60 1007.5
20260506121530 77 89 2.0 8.0 0.00 0.00 0.00 63 1007.3
20260506120531 78 170 0.0 4.0 0.00 0.00 0.00 60 1007.0
20260506115530 79 178 0.0 3.0 0.00 0.00 0.00 57 1006.9
20260506114531 79 163 0.0 4.0 0.00 0.00 0.00 58 1006.6
20260506113530 80 167 1.0 3.0 0.00 0.00 0.00 54 1006.5
20260506113014 79 162 0.0 3.0 0.00 0.00 0.00 56 1006.5
20260506111532 80 157 0.0 2.0 0.00 0.00 0.00 53 1006.4
20260506110531 80 175 0.0 2.0 0.00 0.00 0.00 55 1006.0
20260506105532 80 168 0.0 1.0 0.00 0.00 0.00 53 1005.6
20260506105009 80 154 0.0 2.0 0.00 0.00 0.00 54 1005.6
20260506104014 81 157 2.0 3.0 0.00 0.00 0.00 51 1005.6
20260506102532 81 149 1.0 4.0 0.00 0.00 0.00 55 1005.5
20260506101532 82 139 2.0 2.0 0.00 0.00 0.00 52 1005.4
20260506100532 81 202 0.0 1.0 0.00 0.00 0.00 53 1005.3
20260506095530 81 199 0.0 1.0 0.00 0.00 0.00 51 1005.3
20260506095020 80 203 0.0 2.0 0.00 0.00 0.00 54 1005.2
20260506093532 81 197 0.0 0.0 0.00 0.00 0.00 51 1005.4
20260506092528 80 197 0.0 3.0 0.00 0.00 0.00 55 1005.5
20260506092012 69 219 1.0 2.0 0.00 0.00 0.00 97 1005.6
20260506091012 84 205 0.0 2.0 0.00 0.00 0.00 46 1005.5
20260506090502 68 198 0.0 2.0 0.00 0.00 0.00 100 1005.5
20260506085003 83 244 2.0 3.0 0.00 0.00 0.00 47 1005.6
20260506083520 67 204 0.0 2.0 0.00 0.00 0.00 100 1005.5
20260506082521 82 202 0.0 3.0 0.00 0.00 0.00 50 1005.6
20260506081521 66 213 0.0 4.0 0.00 0.00 0.00 100 1005.8
20260506080521 81 312 0.0 6.0 0.00 0.00 0.00 49 1006.1
20260506073514 83 236 3.0 6.0 0.00 0.00 0.00 48 1006.5
20260506072506 85 238 2.0 6.0 0.00 0.00 0.00 45 1006.6
20260506071502 86 254 2.0 10.0 0.00 0.00 0.00 43 1006.7
20260506070502 89 198 1.0 7.0 0.00 0.00 0.00 41 1007.0
20260506061456 95 156 1.0 3.0 0.00 0.00 0.00 38 1007.4
20260506060630 91 165 0.0 3.0 0.00 0.00 0.00 39 1007.6
20260506051125 93 168 1.0 3.0 0.00 0.00 0.00 38 1008.5
20260506050859 93 198 1.0 4.0 0.00 0.00 0.00 38 1008.7
20260506044559 93 165 0.0 3.0 0.00 0.00 0.00 37 1008.9
20260506043557 93 179 0.0 3.0 0.00 0.00 0.00 38 1009.0
20260506042554 92 172 1.0 4.0 0.00 0.00 0.00 39 1009.2
20260506042101 91 161 0.0 2.0 0.00 0.00 0.00 40 1009.3
20260506040555 93 218 1.0 2.0 0.00 0.00 0.00 38 1009.4
20260506040101 92 129 1.0 3.0 0.00 0.00 0.00 40 1009.5
20260506034545 93 171 0.0 6.0 0.00 0.00 0.00 40 1009.4
20260506033539 92 114 2.0 4.0 0.00 0.00 0.00 41 1009.5
20260506032539 91 185 0.0 3.0 0.00 0.00 0.00 42 1009.7
20260506031534 89 177 1.0 3.0 0.00 0.00 0.00 44 1009.8
20260506030529 87 128 0.0 6.0 0.00 0.00 0.00 46 1009.9
20260506025528 87 180 0.0 3.0 0.00 0.00 0.00 46 1010.1
20260506024524 87 181 0.0 2.0 0.00 0.00 0.00 46 1010.1
20260506023518 86 169 0.0 3.0 0.00 0.00 0.00 47 1010.1
20260506022518 86 158 0.0 3.0 0.00 0.00 0.00 48 1010.3
20260506021513 86 170 0.0 6.0 0.00 0.00 0.00 48 1010.2
20260506021017 85 166 0.0 4.0 0.00 0.00 0.00 49 1010.1
20260506015507 84 192 1.0 3.0 0.00 0.00 0.00 49 1010.1
20260506014500 84 159 0.0 2.0 0.00 0.00 0.00 50 1010.0
20260506013457 83 117 2.0 3.0 0.00 0.00 0.00 50 1010.1
20260506012508 83 165 0.0 2.0 0.00 0.00 0.00 50 1010.0
20260506011956 83 156 1.0 2.0 0.00 0.00 0.00 50 1009.9
20260506010444 82 182 0.0 1.0 0.00 0.00 0.00 51 1009.9
20260506005443 81 175 0.0 3.0 0.00 0.00 0.00 52 1009.7
20260506004437 81 188 0.0 0.0 0.00 0.00 0.00 52 1009.7
20260506003432 80 187 0.0 1.0 0.00 0.00 0.00 53 1009.5
20260506002436 80 172 0.0 2.0 0.00 0.00 0.00 54 1009.5
20260506001433 80 175 0.0 1.0 0.00 0.00 0.00 54 1009.5
20260506000433 79 168 0.0 1.0 0.00 0.00 0.00 55 1009.4
20260505235425 78 184 0.0 0.0 0.00 0.00 0.00 56 1009.2
20260505234418 78 155 0.0 0.0 0.00 0.00 0.00 56 1009.1
20260505233419 78 178 0.0 0.0 0.00 0.00 0.00 56 1008.8
20260505232417 77 178 0.0 0.0 0.00 0.00 0.00 57 1008.8
20260505231915 77 178 0.0 0.0 0.00 0.00 0.00 56 1008.8
20260505230421 77 176 0.0 0.0 0.00 0.00 0.00 57 1008.8
20260505225407 77 173 0.0 0.0 0.00 0.00 0.00 58 1008.7
20260505224408 77 173 0.0 0.0 0.00 0.00 0.00 58 1008.4
20260505223406 77 173 0.0 0.0 0.00 0.00 0.00 58 1008.5
20260505222409 77 172 0.0 0.0 0.00 0.00 0.00 58 1008.4
20260505222345 77 172 0.0 0.0 0.00 0.00 0.00 58 1008.3
20260505220408 77 174 0.0 0.0 0.00 0.00 0.00 58 1008.3
20260505215409 78 174 0.0 0.0 0.00 0.00 0.00 58 1008.3
20260505214408 78 174 0.0 0.0 0.00 0.00 0.00 58 1008.2
20260505213841 78 174 0.0 0.0 0.00 0.00 0.00 58 1008.1
20260505212408 78 173 0.0 0.0 0.00 0.00 0.00 58 1008.1
20260505211409 78 172 0.0 0.0 0.00 0.00 0.00 58 1008.0
20260505210408 78 177 0.0 0.0 0.00 0.00 0.00 58 1007.9
20260505205409 78 177 0.0 0.0 0.00 0.00 0.00 58 1007.9
20260505204409 78 177 0.0 0.0 0.00 0.00 0.00 58 1007.9
20260505203408 78 177 0.0 0.0 0.00 0.00 0.00 57 1007.7
20260505202413 78 177 0.0 0.0 0.00 0.00 0.00 57 1007.8
20260505201408 79 176 0.0 1.0 0.00 0.00 0.00 56 1007.7
20260505200408 79 182 0.0 0.0 0.00 0.00 0.00 56 1007.7
20260505195408 79 182 0.0 0.0 0.00 0.00 0.00 56 1007.8
20260505194415 79 171 0.0 0.0 0.00 0.00 0.00 56 1007.9
20260505193409 79 171 0.0 0.0 0.00 0.00 0.00 56 1007.8
20260505192856 79 171 0.0 0.0 0.00 0.00 0.00 55 1007.8
20260505191811 79 171 0.0 0.0 0.00 0.00 0.00 55 1007.8